Temperature
14 14 14 14 14 14 14 13 13 13 13 13 13 13 13 12 12 12 12 12 12 12 12 12 12 12 12 12 12 12 12 12 11 11 11 11 11 11 11 11 11 11 11
14 14 13 13 13 13 13 13 13 13 13 13 13 12 12 12 12 12 12 12 12 11 11 11 11 11 11 11 12 11 11 11 11 11 10 10 10 10 10 11 10 10 10
13 13 13 13 13 13 13 13 13 13 13 12 12 12 12 12 12 12 12 11 11 11 11 11 11 11 11 11 11 11 11 11 11 11 10 10 10 10 10 10 10 10 10
13 13 13 13 13 13 13 13 13 12 12 12 12 12 12 12 12 12 11 11 11 11 11 11 11 11 11 11 11 11 10 10 10 10 10 10 10 10 10 10 10 10 10
13 13 12 12 12 12 12 12 12 12 12 12 12 12 12 12 12 11 11 11 11 11 11 11 10 10 10 10 10 10 10 10 10 10 9 9 9 9 9 9 9 9 9
12 12 12 12 12 12 12 12 12 12 12 12 12 11 11 11 11 11 11 11 11 10 10 10 10 10 10 10 10 10 9 9 9 9 9 9 9 9 9 9 9 9 8
12 12 12 12 12 12 12 12 12 12 12 12 12 11 11 11 11 11 11 11 11 10 10 10 10 10 10 9 9 9 9 9 9 9 9 9 9 9 9 8 8 8 8
12 12 12 11 11 11 11 11 11 11 11 11 11 11 11 11 11 11 11 10 10 10 10 10 9 9 9 9 9 9 9 9 9 8 8 9 9 8 8 8 8 8 8
11 11 11 11 11 11 11 11 11 11 11 11 11 11 11 11 11 11 10 10 10 10 9 9 9 9 9 9 9 9 9 8 8 8 8 8 8 8 8 8 8 7 7
11 11 11 10 10 10 10 10 10 10 10 10 10 10 10 10 10 10 10 10 9 9 9 9 9 8 8 8 8 8 8 8 8 8 8 8 8 8 8 7 7 7 7
11 10 10 10 10 10 10 10 10 10 10 10 10 10 10 10 10 10 9 9 9 9 8 8 8 8 8 8 8 7 7 7 7 7 7 7 7 7 7 7 7 7 7
10 10 10 10 10 10 10 9 9 9 9 9 9 9 9 9 9 9 9 9 8 8 8 8 8 8 7 7 7 7 7 7 7 7 7 7 6 6 6 6 6 6 6
10 10 9 9 9 9 9 9 9 9 9 9 9 8 9 9 9 8 8 8 8 8 8 7 7 7 7 7 7 7 6 6 6 6 6 6 6 6 6 6 6 6 6
10 9 9 9 9 9 9 9 9 9 8 8 8 8 8 8 8 8 8 8 8 7 7 7 7 7 7 6 6 6 6 6 6 6 6 6 5 5 5 5 5 5 5
9 9 9 8 8 8 8 8 8 8 8 8 8 8 8 8 8 8 8 8 7 7 7 7 6 6 6 6 6 5 5 5 5 5 5 5 5 5 5 5 5 5 5
9 9 8 8 8 8 8 8 8 8 8 8 8 8 8 7 7 7 7 7 7 7 6 6 6 6 5 5 5 5 5 5 5 5 5 5 5 4 4 4 4 4 4
9 8 8 8 8 8 7 7 7 7 7 7 7 7 7 7 7 7 7 7 6 6 6 6 5 5 5 5 5 5 4 4 4 4 4 4 4 4 4 4 4 4 4
8 8 8 8 8 7 7 7 7 7 7 7 7 7 7 7 6 6 6 6 6 5 5 5 5 5 5 5 5 4 4 4 4 4 4 4 4 4 4 4 3 3 3
8 8 7 7 7 7 7 7 6 6 6 6 6 6 6 6 6 6 6 6 5 5 5 5 5 5 5 4 4 4 4 4 4 4 4 4 4 3 3 3 3 3 3
7 7 7 7 7 6 6 6 6 6 6 6 6 6 6 6 5 5 5 5 5 5 4 4 4 4 4 4 4 4 4 3 3 3 3 3 3 3 3 3 3 3 3
7 7 7 6 6 6 6 6 5 5 5 5 5 5 5 5 5 5 5 5 4 4 4 4 4 4 4 4 3 3 3 3 3 3 3 3 3 3 3 2 2 2 2
6 6 6 6 6 6 6 5 5 5 5 5 5 5 5 5 4 4 4 4 4 4 4 4 4 3 3 3 3 3 3 3 3 3 2 2 2 2 2 2 2 2 2
6 6 6 6 6 5 5 5 5 5 5 4 4 4 4 4 4 4 4 4 4 4 3 3 3 3 3 3 3 3 2 2 2 2 2 2 2 2 2 2 1 1 1
5 5 5 5 5 5 5 5 5 4 4 4 4 4 4 4 4 4 4 3 3 3 3 3 3 3 3 3 3 2 2 2 2 2 2 2 2 1 1 1 1 1 1
5 5 5 5 5 5 4 4 4 4 4 4 3 3 3 3 3 3 3 3 3 3 3 3 3 3 3 2 2 2 2 2 2 2 2 1 1 1 1 1 0 0 0
4 4 4 4 4 4 4 4 4 3 3 3 3 3 3 3 3 3 3 2 2 2 2 2 2 2 2 2 2 2 2 2 2 1 1 1 1 1 0 0 0 -0 -0
Wind_Speed
2 1 1 1 1 1 1 1 2 2 3 3 3 3 3 2 2 2 1 1 1 1 0 1 0 0 0 0 0 0 0 1 2 1 0 0 1 1 1 0 1 2 3
2 2 1 0 1 1 1 1 2 2 2 2 2 3 3 3 3 2 2 1 1 1 0 0 0 0 0 0 0 1 1 1 2 1 1 0 0 0 1 0 0 0 1
2 2 1 1 1 1 1 1 2 2 2 2 2 2 2 2 2 2 1 1 1 1 1 1 1 1 0 0 0 0 1 1 1 1 1 1 0 0 1 1 1 0 1
2 2 2 2 1 1 1 1 1 2 2 1 2 1 1 2 1 1 1 1 1 1 0 0 1 1 1 1 0 0 1 1 0 0 1 1 1 0 0 1 1 1 2
2 2 2 2 1 2 2 2 2 1 1 1 2 2 2 1 1 1 1 1 1 1 0 0 0 1 1 1 1 1 1 1 1 1 1 1 1 1 1 1 1 2 2
3 3 2 2 1 2 1 2 2 1 1 2 2 2 2 1 1 2 1 2 2 1 1 1 1 1 1 1 0 2 3 3 3 2 2 3 3 3 2 1 1 1 2
2 2 2 2 2 2 2 2 2 2 1 1 2 2 2 2 2 2 2 2 2 2 1 1 1 1 2 1 1 1 2 3 5 4 4 4 4 3 2 2 2 2 3
2 2 2 2 2 1 1 2 2 2 2 2 2 2 3 2 3 3 2 2 2 2 2 2 1 1 1 0 0 1 2 2 2 2 2 3 2 2 3 3 4 3 3
2 2 2 2 2 2 2 2 2 1 2 2 2 2 3 3 4 3 2 1 1 1 1 1 2 2 2 1 0 1 2 2 3 3 3 3 4 4 2 1 1 1 3
2 2 2 2 2 2 2 2 2 2 2 2 2 2 3 3 4 3 2 1 1 1 1 1 2 2 3 3 2 2 3 3 2 3 3 4 3 3 4 3 3 3 2
1 1 1 2 2 2 2 2 2 2 2 3 3 2 3 3 4 5 4 2 2 2 1 1 1 2 4 5 4 4 5 4 3 3 3 2 2 2 2 2 2 3 3
1 1 1 1 1 1 1 1 1 2 3 3 3 2 2 3 4 5 6 5 3 2 2 2 2 4 5 6 5 6 6 4 2 2 2 2 2 2 2 2 2 2 3
2 1 2 2 1 1 2 1 1 2 2 3 3 3 2 2 3 5 6 5 4 2 2 3 4 5 5 5 5 6 5 3 2 2 3 3 2 2 1 1 2 2 2
3 2 2 2 1 1 1 1 1 1 2 2 3 3 3 2 2 2 2 3 2 2 1 2 3 3 2 3 4 4 4 3 3 3 3 2 1 1 1 1 1 1 2
3 3 2 2 2 1 1 1 1 1 2 2 2 2 3 3 3 4 4 3 3 3 1 1 1 1 2 2 2 2 2 2 2 2 2 2 2 2 2 2 1 1 2
3 2 2 1 1 1 1 1 1 1 2 2 3 3 2 3 3 4 5 5 4 4 2 2 2 3 3 3 3 3 3 2 2 2 2 2 2 2 2 2 1 1 2
2 2 2 1 1 1 1 1 1 2 3 3 3 3 3 3 4 3 3 3 4 4 2 3 3 3 3 3 3 3 3 2 2 2 2 2 2 3 2 2 2 2 2
1 1 1 1 1 1 1 1 1 1 2 2 3 4 3 3 4 4 3 1 1 2 3 3 3 3 3 3 3 3 2 2 2 2 2 2 3 3 3 3 3 3 2
1 1 1 1 1 1 1 1 1 2 2 2 1 2 2 2 2 2 3 2 3 3 3 3 3 2 2 2 2 2 2 2 2 2 2 3 3 3 3 3 3 4 3
0 1 1 1 1 1 1 1 1 1 2 2 1 1 0 0 1 2 3 2 3 3 3 3 3 2 2 2 2 2 2 2 2 2 2 2 2 3 3 3 3 3 3
1 1 1 1 1 1 1 1 2 2 2 2 2 1 2 1 2 3 3 3 3 3 3 3 2 2 2 2 2 3 3 3 3 2 2 2 2 2 3 3 3 3 3
0 1 1 1 1 2 2 2 2 2 2 2 2 2 2 1 2 3 3 4 3 3 3 2 2 2 3 2 3 3 3 3 3 2 2 2 2 2 2 2 2 2 3
0 1 1 1 1 2 2 2 2 2 2 2 2 2 2 2 2 3 3 3 3 2 2 2 2 2 3 3 3 3 3 3 3 3 2 2 2 2 2 2 3 3 3
1 1 1 1 1 2 2 2 2 2 2 2 2 2 2 3 3 3 3 2 2 2 2 2 3 3 4 3 3 3 3 3 3 3 3 3 3 3 3 3 3 3 3
1 1 1 1 2 2 2 2 2 2 2 2 2 2 3 3 3 3 3 3 3 3 3 3 3 3 4 4 4 4 5 5 4 3 4 3 4 4 3 3 3 3 3
1 1 1 2 2 2 2 3 3 3 3 2 2 2 3 3 3 3 3 3 3 3 2 2 3 3 4 4 5 5 5 5 5 5 4 4 4 4 4 4 4 4 4
Wind_Direction
131 105 90 110 143 144 168 154 138 142 143 144 148 149 147 141 138 135 170 202 174 227 229 147 171 124 307 266 73 88 163 157 175 265 222 96 70 68 83 348 170 182 196
135 128 120 127 141 143 163 165 151 148 152 160 158 155 153 152 157 159 187 218 193 216 233 80 267 224 236 234 147 169 179 160 156 205 274 12 51 65 116 23 86 288 212
136 128 129 137 127 147 173 159 152 151 156 170 155 157 154 153 159 154 168 194 182 226 223 214 228 142 153 10 76 121 137 117 148 173 248 299 282 49 35 346 314 341 291
149 148 167 193 188 177 164 163 175 173 176 190 165 150 137 130 144 146 158 220 235 245 260 212 151 147 149 148 162 142 115 101 132 160 219 268 274 291 93 277 298 300 302
172 174 194 196 192 195 185 180 191 194 191 176 155 155 158 168 186 169 191 245 260 250 279 96 134 151 170 207 208 192 175 185 203 202 229 256 256 252 240 234 255 283 288
186 189 188 180 184 198 192 183 178 186 202 174 161 164 178 207 175 171 187 224 242 222 209 211 204 170 152 131 262 220 204 208 211 211 229 231 241 239 225 230 241 293 289
190 188 182 183 191 206 208 188 189 191 195 191 180 172 160 174 189 197 227 229 228 216 202 203 247 199 117 106 323 313 277 258 232 221 223 234 228 226 218 229 245 251 256
188 193 189 180 186 206 223 215 213 194 185 204 199 189 171 189 198 206 238 241 219 210 200 188 186 171 168 128 289 308 290 294 274 256 228 240 243 225 208 219 230 254 279
184 198 190 187 188 198 221 213 209 201 209 207 197 183 181 197 196 193 203 248 241 242 213 176 180 181 195 213 242 278 289 294 312 302 283 270 272 269 251 239 240 242 273
190 199 191 192 191 209 216 217 205 203 211 198 207 208 191 188 195 195 197 205 241 272 260 206 198 196 216 222 228 238 254 260 277 294 299 296 278 264 251 212 215 233 255
177 177 187 198 200 202 203 213 203 206 208 204 205 207 192 189 199 203 206 207 221 250 261 255 220 220 240 246 249 237 244 255 253 248 258 266 266 256 250 239 214 222 236
140 160 185 213 220 205 193 230 216 207 210 208 212 216 206 189 193 205 210 223 231 235 248 246 235 246 253 257 251 244 254 260 252 243 244 252 256 255 252 257 267 268 249
170 181 198 211 225 207 194 219 224 218 220 211 205 215 220 195 190 201 213 226 242 251 265 271 268 258 254 252 246 253 255 240 229 237 239 242 245 245 231 253 282 293 295
181 186 198 204 222 237 235 232 231 216 236 240 216 216 218 202 180 180 200 214 233 256 280 280 276 268 249 248 259 258 247 234 223 225 231 234 239 258 270 258 274 291 309
187 185 201 214 206 201 209 243 253 256 237 252 252 234 214 223 220 193 188 200 205 217 211 236 248 250 235 233 240 251 257 249 236 228 224 223 227 239 261 262 255 271 264
190 186 196 201 209 195 198 254 311 282 289 279 268 260 255 239 210 200 200 210 216 209 208 218 235 235 230 231 229 236 245 242 231 222 222 231 235 232 245 258 267 256 263
194 192 196 195 210 212 208 217 279 314 294 287 288 281 254 238 218 210 209 212 220 210 221 226 234 233 229 228 227 224 234 240 221 216 219 226 241 244 244 250 252 262 270
184 191 200 191 205 221 222 225 231 261 297 304 293 276 260 243 232 220 200 170 233 227 231 233 237 232 228 222 214 216 223 233 233 227 220 226 236 240 243 247 247 247 261
184 174 186 201 216 221 216 234 249 253 267 287 311 307 272 265 259 234 190 198 217 233 243 245 244 238 233 222 215 215 217 229 236 232 228 232 232 233 237 238 245 260 260
217 224 208 197 215 228 215 221 256 270 271 270 269 268 277 331 235 234 222 229 230 232 238 243 246 239 233 226 216 213 220 231 236 239 244 241 236 233 234 232 237 247 252
193 216 261 231 214 222 227 237 248 256 262 269 267 241 206 224 228 229 232 237 237 232 230 232 233 230 230 225 217 216 220 229 230 232 235 240 237 250 249 236 236 241 251
234 228 224 221 229 232 234 238 247 254 261 264 277 271 234 250 244 231 232 238 240 238 226 220 225 224 218 214 214 219 224 229 223 221 227 233 236 246 256 256 257 255 250
270 269 262 257 249 264 267 257 253 253 259 261 258 257 243 251 260 251 241 239 234 231 229 217 220 230 226 216 211 206 213 221 216 206 216 225 225 232 241 254 258 266 264
219 247 267 281 279 270 262 254 251 256 258 259 254 251 245 244 254 262 258 252 240 235 227 221 221 227 227 224 213 211 214 220 213 199 197 215 225 232 234 239 247 253 256
226 239 247 258 268 266 267 270 270 267 263 258 254 255 254 249 252 263 261 246 240 230 230 230 228 232 229 232 213 207 214 218 217 211 206 209 223 229 231 237 246 256 260
243 253 261 263 264 267 266 266 269 271 268 264 254 249 252 254 256 261 260 245 235 229 228 233 238 241 241 232 217 213 216 218 219 221 216 213 217 225 225 230 240 245 253
Height
1508 1509 1509 1510 1511 1512 1513 1514 1515 1516 1517 1517 1518 1519 1520 1521 1522 1522 1524 1525 1525 1526 1526 1527 1528 1528 1529 1530 1530 1530 1531 1531 1531 1531 1532 1532 1532 1532 1531 1531 1531 1531 1531
1506 1507 1507 1508 1509 1510 1511 1512 1513 1514 1515 1516 1517 1517 1518 1519 1520 1520 1521 1522 1523 1524 1524 1525 1525 1526 1526 1527 1527 1527 1528 1528 1528 1528 1529 1530 1530 1529 1529 1529 1529 1528 1528
1504 1505 1505 1506 1507 1508 1509 1510 1511 1512 1513 1514 1515 1516 1516 1517 1518 1518 1519 1520 1521 1521 1522 1522 1523 1523 1523 1524 1524 1525 1525 1526 1526 1526 1526 1527 1527 1527 1527 1526 1526 1526 1526
1502 1503 1503 1504 1504 1505 1506 1507 1508 1510 1511 1512 1513 1513 1514 1515 1515 1516 1517 1517 1518 1519 1520 1520 1520 1521 1521 1521 1521 1522 1522 1523 1523 1524 1524 1524 1524 1524 1524 1523 1523 1523 1523
1500 1500 1501 1501 1502 1503 1504 1505 1506 1507 1508 1509 1510 1511 1511 1512 1513 1514 1514 1515 1515 1516 1517 1517 1517 1518 1518 1518 1519 1519 1519 1519 1520 1520 1520 1521 1521 1521 1521 1521 1520 1520 1519
1498 1498 1499 1499 1500 1501 1501 1502 1503 1504 1505 1506 1507 1507 1508 1509 1510 1510 1511 1512 1512 1513 1513 1514 1514 1515 1515 1515 1516 1516 1516 1517 1516 1517 1517 1518 1518 1518 1518 1518 1517 1517 1516
1495 1496 1496 1496 1497 1498 1498 1499 1500 1501 1502 1503 1504 1504 1505 1506 1507 1507 1508 1508 1509 1510 1510 1510 1511 1512 1512 1512 1512 1513 1513 1514 1514 1515 1514 1515 1515 1515 1515 1514 1514 1514 1513
1493 1493 1493 1494 1494 1495 1495 1496 1496 1497 1498 1499 1500 1501 1501 1502 1503 1504 1505 1505 1506 1506 1507 1507 1508 1508 1508 1509 1509 1509 1509 1510 1510 1510 1511 1511 1512 1512 1512 1511 1511 1511 1510
1490 1490 1490 1491 1491 1491 1491 1492 1493 1494 1494 1495 1496 1497 1497 1498 1499 1500 1501 1502 1502 1503 1503 1504 1504 1504 1504 1505 1505 1505 1505 1505 1506 1506 1507 1507 1508 1508 1508 1507 1507 1507 1506
1487 1488 1488 1488 1488 1488 1488 1489 1489 1490 1491 1492 1492 1493 1494 1495 1495 1496 1497 1497 1498 1498 1499 1499 1500 1500 1500 1500 1501 1501 1500 1501 1501 1501 1502 1502 1503 1503 1503 1503 1503 1503 1502
1485 1485 1485 1485 1486 1485 1485 1486 1486 1487 1488 1488 1489 1490 1491 1491 1492 1493 1493 1494 1494 1494 1495 1495 1495 1496 1496 1496 1496 1496 1496 1497 1497 1497 1497 1497 1498 1498 1498 1498 1499 1499 1498
1482 1482 1482 1483 1483 1482 1482 1482 1483 1483 1484 1484 1485 1486 1487 1487 1488 1489 1489 1490 1490 1490 1490 1490 1491 1491 1491 1492 1492 1492 1492 1493 1493 1492 1492 1492 1493 1493 1494 1494 1494 1494 1494
1479 1479 1479 1480 1480 1479 1479 1479 1479 1480 1480 1480 1481 1482 1482 1483 1484 1485 1486 1486 1486 1486 1486 1486 1486 1486 1486 1487 1487 1487 1488 1488 1488 1488 1488 1488 1489 1489 1489 1489 1489 1489 1489
1476 1476 1476 1477 1477 1476 1476 1476 1476 1476 1476 1476 1477 1478 1478 1479 1480 1480 1481 1482 1482 1482 1482 1482 1482 1482 1482 1482 1482 1483 1483 1483 1483 1484 1484 1484 1485 1485 1485 1485 1485 1484 1485
1473 1474 1474 1474 1474 1474 1473 1474 1473 1473 1473 1473 1473 1474 1474 1475 1476 1477 1477 1477 1477 1477 1477 1477 1477 1477 1477 1477 1477 1477 1478 1479 1479 1479 1480 1480 1480 1480 1481 1481 1481 1481 1481
1470 1471 1471 1471 1471 1471 1470 1470 1470 1470 1470 1470 1470 1471 1471 1472 1472 1472 1473 1473 1473 1473 1473 1472 1472 1473 1472 1473 1473 1473 1474 1474 1474 1475 1475 1475 1476 1476 1476 1477 1477 1477 1477
1467 1468 1468 1468 1468 1468 1467 1467 1466 1467 1467 1467 1466 1466 1466 1467 1467 1468 1468 1468 1469 1469 1468 1468 1468 1469 1469 1469 1469 1469 1469 1470 1470 1470 1471 1471 1472 1472 1473 1473 1473 1473 1473
1464 1465 1465 1464 1465 1465 1464 1464 1463 1463 1462 1462 1462 1462 1462 1463 1463 1463 1464 1464 1463 1463 1464 1464 1464 1464 1465 1464 1464 1465 1465 1466 1466 1466 1466 1467 1468 1468 1468 1469 1469 1469 1469
1461 1461 1461 1461 1462 1462 1462 1461 1461 1460 1460 1459 1458 1458 1459 1459 1459 1459 1459 1459 1458 1459 1459 1460 1460 1460 1460 1460 1460 1461 1461 1461 1462 1462 1462 1462 1463 1463 1464 1464 1465 1464 1465
1458 1458 1459 1459 1459 1459 1459 1458 1458 1457 1457 1456 1455 1455 1455 1454 1454 1454 1454 1454 1454 1455 1455 1455 1455 1456 1456 1456 1456 1456 1456 1457 1457 1458 1458 1458 1458 1459 1459 1459 1460 1460 1460
1455 1455 1456 1456 1455 1455 1456 1455 1455 1454 1454 1453 1452 1452 1452 1451 1450 1450 1450 1450 1450 1450 1451 1451 1451 1451 1451 1451 1452 1452 1452 1452 1453 1453 1453 1453 1453 1454 1454 1455 1455 1455 1455
1452 1452 1452 1452 1452 1452 1452 1452 1452 1451 1451 1450 1449 1449 1448 1448 1447 1447 1446 1446 1446 1447 1447 1447 1447 1447 1447 1447 1447 1447 1447 1448 1448 1448 1449 1449 1449 1449 1450 1450 1450 1451 1451
1449 1449 1449 1449 1449 1450 1449 1449 1448 1448 1447 1447 1446 1445 1444 1443 1443 1443 1443 1442 1442 1442 1442 1442 1442 1442 1442 1442 1443 1443 1443 1443 1443 1444 1444 1444 1444 1445 1445 1445 1446 1446 1446
1446 1446 1446 1446 1446 1446 1446 1445 1445 1444 1444 1443 1442 1442 1441 1440 1439 1439 1438 1438 1438 1438 1438 1437 1437 1437 1437 1437 1437 1438 1438 1439 1439 1439 1440 1440 1440 1440 1441 1441 1441 1441 1441
1443 1443 1443 1443 1443 1442 1442 1441 1441 1440 1440 1439 1438 1438 1437 1436 1435 1434 1434 1433 1433 1433 1433 1433 1433 1432 1432 1432 1432 1433 1433 1434 1434 1435 1435 1435 1435 1436 1436 1437 1437 1437 1437
1440 1440 1440 1439 1439 1438 1438 1437 1437 1436 1436 1435 1434 1433 1432 1432 1431 1430 1429 1429 1428 1428 1428 1428 1428 1428 1427 1427 1427 1428 1428 1429 1429 1430 1430 1430 1430 1431 1431 1432 1432 1433 1433